sat.trackr.live / text

‹ back to catalog

STARLINK-37163

NORAD 68264 · 2026-055C

PAYLOAD ACTIVE UNKNOWN

§ Identity

Operator
Country
US
Launch date
2026-03-19
Launch site
AFETR
Launch vehicle
Mass (kg)
RCS (m²)

Purposes: comms

External: N2YO · Heavens-Above · Gunter

§ Orbital elements

Epoch: 2026-05-25T04:00:03.998880Z

Period
93.85 min
Inclination
53.1602°
Eccentricity
0.0001006
Mean motion
15.34393591 rev/d
Perigee alt
462.0 km
Apogee alt
463.4 km
Semi-major
6,840.9 km
B*
-4.5360e-4
RAAN
322.9627°
Arg perigee
92.1861°
Mean anomaly
321.3841°
Rev number
571

§ Raw data

STARLINK-371631 68264U 26055C   26145.16671295 -.00015667  00000+0 -45360-3 0  99962 68264  53.1602 322.9627 0001006  92.1861 321.3841 15.34393591  5718

JSON: /api/v1/satellites/68264 · /tle

For live sub-satellite position, see the globe view (requires WebGL).

§ Visibility from observer

Set your observer location to see the next 7 days of passes ≥ 10°. The values pass through the URL so the page stays shareable.

No JS? Fill the form by hand. The geolocation button needs JavaScript.